[[{"header":{"parameterUnit":"m.s-1","parameterCategory":1,"la1":30.2991,"la2":30.254,"lo1":-89.0895,"lo2":-89.0444,"dy":0.0017,"dx":0.0017,"nx":28,"ny":28,"refTime":"2024-07-01T21:00:00:Z","depth":0,"parameterNumber":2,"parameterNumberName":"U-component_of_WINDS"},"data":[0,0,0,0,0,0,0,0,0,0,0,0,0,0,0,0,0,0,0,0,0,0,0,0,0,0,0,0,0,0,0,0,0,0,0,0,0,0,0,0,0,0,0,0,0,0,0,0,0,0,0,0,0,0,0,0,0,0,2.202,2.2021,0,2.2092,2.2092,2.2093,2.2053,2.2051,2.2049,2.2047,2.2122,2.2126,2.213,0,0,0,0,0,0,0,0,0,0,0,0,0,2.185,2.1854,2.202,2.2021,2.2022,2.2091,2.2092,2.2093,2.2054,2.2051,2.2049,2.2047,2.2121,2.2125,2.213,0,0,0,0,0,0,0,0,0,0,0,0,0,2.1923,2.1855,2.202,2.201,2.201,2.2091,2.2092,2.2094,2.2054,2.2051,2.2048,2.2045,2.2119,2.2125,2.2131,2.2225,0,0,2.2148,2.2151,0,0,0,0,0,0,0,0,2.1919,2.193,2.2011,2.2011,2.2011,2.206,2.206,2.2138,2.2055,2.2037,2.2047,2.2044,2.2104,2.2111,2.2131,2.2229,2.2232,2.2149,2.2152,2.2155,2.2156,0,0,0,0,0,0,0,2.1914,2.1926,2.2048,2.2012,2.2012,2.2003,2.201,2.2075,2.2087,2.2039,2.2036,2.2045,2.2104,2.2125,2.2132,2.2233,2.2148,2.2154,2.2157,2.2159,2.2414,2.2417,0,0,0,0,0,0,2.191,2.1922,2.2046,2.205,2.1957,2.2008,2.2016,2.2048,2.2086,2.2089,2.2047,2.2043,2.2117,2.2126,2.2135,2.2249,2.2154,2.216,2.2163,2.2411,2.2415,2.2418,0,0,0,0,0,0,2.1906,2.1921,2.2043,2.1986,2.2,2.2015,2.205,2.2051,2.2072,2.2092,2.2094,2.2067,2.2115,2.2127,2.2203,2.2251,2.2162,2.2168,2.2407,2.2412,2.2416,2.2477,0,0,0,0,0,0,2.1901,2.192,2.1956,2.1987,2.2004,2.211,2.2053,2.2054,2.2082,2.2077,2.2112,2.2115,2.2114,2.2195,2.2209,2.2257,2.2172,2.2402,2.2409,2.2415,2.2471,2.2483,2.2494,0,0,0,0,0,2.1895,2.197,2.1958,2.1973,2.2048,2.2113,2.2122,2.2119,2.2086,2.2122,2.2136,2.2113,2.2243,2.2203,2.2219,2.2269,2.2399,2.2407,2.2414,2.2465,2.2481,2.2494,0,0,0,0,0,0,2.1944,2.1974,2.196,2.2047,2.2078,2.2106,2.2151,2.2136,2.2177,2.217,2.2165,2.2173,2.2253,2.2269,2.2223,2.2363,2.2316,2.2327,2.235,2.2365,2.2376,2.237,2.2177,0,0,0,0,0,2.1965,2.2014,2.2037,2.2112,2.2128,2.2137,2.2165,2.216,2.2192,2.2205,2.2223,2.2255,2.2303,2.2335,2.238,2.2473,2.2481,2.2516,2.2527,2.2537,2.2546,2.2597,2.2613,2.2443,2.2443,2.2442,0,0,2.2008,2.203,2.2062,2.2122,2.2145,2.2197,2.2148,2.2205,2.2243,2.2213,2.2287,2.2302,2.2337,2.2423,2.2461,2.2438,2.2595,2.2546,2.2554,2.2558,2.2606,2.2623,2.2637,2.2448,2.2447,2.2446,0,0,2.2113,2.2135,2.2199,2.2224,2.2259,2.2265,2.2281,2.2312,2.2321,2.2395,2.2374,2.242,2.2502,2.2529,2.2553,2.267,2.2651,2.2685,2.2746,2.2796,2.2809,2.2821,2.2863,2.2878,2.2694,2.2695,2.2695,0,2.2162,2.2238,2.2234,2.2293,2.232,2.2296,2.2361,2.2386,2.2435,2.2454,2.2428,2.2532,2.2554,2.2646,2.2674,2.2695,2.2713,2.268,2.2807,2.2819,2.283,2.287,2.2886,2.2698,2.2698,2.2698,2.2697,0,2.2298,2.2351,2.2399,2.2447,2.248,2.2541,2.2547,2.2581,2.2574,2.2583,2.2659,2.2685,2.2736,2.2757,2.2751,2.2849,2.2833,2.2807,2.276,2.285,2.2888,2.2903,2.2704,2.2703,2.2701,2.27,0,0,2.2434,2.2479,2.2497,2.2518,2.2557,2.2598,2.266,2.2709,2.2738,2.2774,2.2825,2.2897,2.2873,2.2901,2.2898,2.2941,2.3033,2.291,2.2911,2.2932,2.3142,2.316,2.3178,2.3021,2.3024,2.3026,2.3139,0,2.2541,2.2647,2.2646,2.2745,2.2794,2.2773,2.2826,2.2856,2.2867,2.2911,2.2923,2.2974,2.2939,2.2956,2.2998,2.3012,2.3075,2.3004,2.3069,2.3071,2.306,2.3198,2.3217,2.3322,2.3153,2.3156,2.3158,0,2.268,2.272,2.2823,2.2855,2.2876,2.2924,2.2969,2.3012,2.3046,2.3051,2.3082,2.3073,2.3136,2.3087,2.3175,2.3127,2.3154,2.3165,2.3169,2.3174,2.3119,2.3206,2.3355,2.3371,2.318,2.3179,2.3177,0,2.2769,2.2848,2.2921,2.294,2.2979,2.3013,2.3031,2.3062,2.3092,2.3133,2.3152,2.3199,2.3225,2.3262,2.3266,2.323,2.3354,2.3306,2.336,2.336,2.3386,2.3384,2.3541,2.3405,2.3404,2.3404,2.3404,0,2.2888,2.2953,2.2961,2.3005,2.3077,2.3076,2.3147,2.3162,2.319,2.3238,2.3223,2.3268,2.327,2.3317,2.332,2.3392,2.3404,2.341,2.341,2.3411,2.341,2.3427,2.342,2.3408,2.3407,2.3406,2.3406,0,2.2999,2.3007,2.3085,2.3116,2.3125,2.3177,2.3203,2.3246,2.3256,2.3316,2.3331,2.3346,2.34,2.3408,2.3471,2.3474,2.356,2.3553,2.3548,2.3547,2.3601,2.3595,2.3774,2.3797,2.3646,2.3647,2.3648,0,2.3074,2.3123,2.316,2.319,2.321,2.326,2.329,2.3292,2.3324,2.3367,2.3405,2.3458,2.35,2.3587,2.3605,2.3653,2.3647,2.3706,2.3654,2.3654,2.3647,2.3644,2.3649,2.3716,2.3717,2.3719,2.372,0,2.3208,2.3209,2.3254,2.33,2.3337,2.3374,2.3408,2.3435,2.344,2.3478,2.3533,2.3566,2.3631,2.3683,2.3732,2.3751,2.3737,2.3736,2.3751,2.3752,2.3748,2.3751,2.3575,2.3732,2.3731,2.373,2.3729,2.3729,2.3303,2.3345,2.3378,2.3428,2.3454,2.3487,2.3529,2.3544,2.359,2.3642,2.3641,2.3701,2.3735,2.3799,2.3822,2.387,2.385,2.3872,2.3878,2.3883,2.3888,2.3741,2.3879,2.3878,2.3878,2.3878,2.3877,0,2.3435,2.3455,2.3501,2.355,2.359,2.3573,2.3611,2.3645,2.3699,2.3731,2.3773,2.3837,2.3888,2.391,2.396,2.3995,2.399,2.4008,2.4005,2.401,2.3902,2.3884,2.4011,2.4011,2.4011,2.4011,2.4011,2.4011,2.3508,2.3579,2.3585,2.367,2.369,2.3748,2.3771,2.3802,2.3828,2.39,2.3942,2.3956,2.3985,2.4037,2.4084,2.4089,2.4108,2.4129,2.4132,2.4031,2.4017,2.4004,2.3987,2.4134,2.4134,2.4235,2.4236,2.4236]},{"header":{"parameterUnit":"m.s-1","parameterCategory":1,"la1":30.2991,"la2":30.254,"lo1":-89.0895,"lo2":-89.0444,"dy":0.0017,"dx":0.0017,"nx":28,"ny":28,"refTime":"2024-07-01T21:00:00:Z","depth":0,"parameterNumber":3,"parameterNumberName":"V-component_of_WINDS"},"data":[0,0,0,0,0,0,0,0,0,0,0,0,0,0,0,0,0,0,0,0,0,0,0,0,0,0,0,0,0,0,0,0,0,0,0,0,0,0,0,0,0,0,0,0,0,0,0,0,0,0,0,0,0,0,0,0,0,0,-0.781,-0.781,0,-0.7807,-0.7807,-0.7807,-0.7789,-0.7789,-0.7788,-0.7788,-0.7785,-0.7786,-0.7786,0,0,0,0,0,0,0,0,0,0,0,0,0,-0.78,-0.78,-0.781,-0.781,-0.781,-0.7807,-0.7807,-0.7807,-0.7789,-0.7788,-0.7788,-0.7787,-0.7785,-0.7786,-0.7786,0,0,0,0,0,0,0,0,0,0,0,0,0,-0.7802,-0.78,-0.781,-0.7801,-0.78,-0.7807,-0.7807,-0.7807,-0.7789,-0.7788,-0.7788,-0.7787,-0.7785,-0.7786,-0.7786,-0.7803,0,0,-0.7788,-0.7788,0,0,0,0,0,0,0,0,-0.7802,-0.7802,-0.7802,-0.7801,-0.78,-0.7798,-0.7803,-0.7806,-0.7789,-0.7793,-0.7788,-0.7787,-0.779,-0.779,-0.7791,-0.7802,-0.7802,-0.7788,-0.7788,-0.7788,-0.7788,0,0,0,0,0,0,0,-0.7801,-0.7802,-0.7809,-0.7802,-0.7801,-0.7797,-0.7796,-0.7803,-0.7795,-0.7793,-0.7791,-0.7791,-0.7789,-0.7791,-0.7791,-0.7802,-0.7788,-0.7788,-0.7788,-0.7789,-0.7827,-0.7828,0,0,0,0,0,0,-0.7803,-0.7802,-0.7809,-0.7809,-0.7799,-0.7797,-0.7797,-0.7799,-0.7795,-0.7794,-0.7792,-0.7791,-0.779,-0.779,-0.7791,-0.781,-0.7788,-0.7789,-0.7789,-0.7826,-0.7827,-0.7828,0,0,0,0,0,0,-0.7802,-0.7803,-0.7809,-0.7805,-0.7805,-0.7798,-0.7801,-0.78,-0.7801,-0.7795,-0.7793,-0.7795,-0.7789,-0.779,-0.78,-0.7809,-0.7789,-0.7789,-0.7826,-0.7827,-0.7828,-0.7848,0,0,0,0,0,0,-0.7802,-0.7803,-0.781,-0.7805,-0.7806,-0.7818,-0.7802,-0.78,-0.7802,-0.78,-0.7797,-0.7795,-0.7789,-0.7799,-0.78,-0.781,-0.779,-0.7825,-0.7826,-0.7827,-0.7846,-0.7849,-0.7852,0,0,0,0,0,-0.7802,-0.7815,-0.781,-0.7811,-0.7813,-0.7819,-0.7819,-0.7811,-0.7802,-0.7809,-0.7805,-0.7796,-0.7808,-0.78,-0.7801,-0.7811,-0.7824,-0.7826,-0.7827,-0.7845,-0.7849,-0.7852,0,0,0,0,0,0,-0.7821,-0.7815,-0.7809,-0.7821,-0.7821,-0.7816,-0.7823,-0.7815,-0.7817,-0.7816,-0.7806,-0.7805,-0.7817,-0.7815,-0.7806,-0.7827,-0.7815,-0.7816,-0.7827,-0.7831,-0.7834,-0.7834,-0.779,0,0,0,0,0,-0.7827,-0.7832,-0.7826,-0.7837,-0.7838,-0.783,-0.7833,-0.7826,-0.7826,-0.7825,-0.7822,-0.7822,-0.7826,-0.7828,-0.7831,-0.7846,-0.7845,-0.7853,-0.7856,-0.7859,-0.786,-0.7868,-0.7871,-0.7833,-0.7833,-0.7833,0,0,-0.7839,-0.7836,-0.7839,-0.7841,-0.784,-0.7845,-0.783,-0.7837,-0.784,-0.7826,-0.7835,-0.7833,-0.7832,-0.7844,-0.7849,-0.7843,-0.787,-0.7861,-0.7863,-0.7863,-0.787,-0.7873,-0.7876,-0.7834,-0.7834,-0.7834,0,0,-0.7863,-0.7861,-0.787,-0.787,-0.7868,-0.7863,-0.7866,-0.7862,-0.786,-0.7868,-0.7858,-0.7862,-0.7869,-0.7869,-0.787,-0.7894,-0.7885,-0.7895,-0.791,-0.7917,-0.792,-0.7923,-0.7931,-0.7935,-0.7897,-0.7897,-0.7897,0,-0.7878,-0.7885,-0.7876,-0.7883,-0.7884,-0.7872,-0.7881,-0.7881,-0.788,-0.7882,-0.7874,-0.7883,-0.7881,-0.7893,-0.7899,-0.79,-0.7902,-0.7895,-0.7921,-0.7923,-0.7925,-0.7933,-0.7937,-0.7898,-0.7898,-0.7898,-0.7898,0,-0.7903,-0.7909,-0.7916,-0.7916,-0.7918,-0.7926,-0.7919,-0.7922,-0.7916,-0.7912,-0.7921,-0.7919,-0.7921,-0.7924,-0.7918,-0.7935,-0.7931,-0.7922,-0.791,-0.793,-0.7938,-0.7941,-0.79,-0.7899,-0.7899,-0.7899,0,0,-0.7939,-0.7934,-0.7937,-0.7937,-0.7934,-0.7938,-0.7946,-0.7948,-0.7951,-0.7951,-0.7957,-0.7963,-0.7955,-0.7956,-0.795,-0.7957,-0.7976,-0.7948,-0.7947,-0.7953,-0.7994,-0.8,-0.8003,-0.797,-0.7971,-0.7971,-0.7994,0,-0.7962,-0.7975,-0.7967,-0.7981,-0.7985,-0.7973,-0.798,-0.7979,-0.7976,-0.7979,-0.7976,-0.798,-0.797,-0.797,-0.7976,-0.7972,-0.7984,-0.797,-0.7976,-0.7976,-0.7976,-0.8007,-0.8014,-0.8035,-0.7997,-0.7997,-0.7997,0,-0.7991,-0.7992,-0.8006,-0.8002,-0.8004,-0.801,-0.8011,-0.8015,-0.8014,-0.8011,-0.8012,-0.8004,-0.8011,-0.7999,-0.8009,-0.8,-0.8002,-0.8001,-0.8001,-0.8001,-0.7988,-0.8008,-0.8042,-0.8045,-0.8002,-0.8001,-0.8001,0,-0.8015,-0.802,-0.8029,-0.8029,-0.8025,-0.803,-0.8028,-0.8026,-0.8028,-0.803,-0.8031,-0.8033,-0.8034,-0.8036,-0.8029,-0.8021,-0.804,-0.8028,-0.8038,-0.8038,-0.8042,-0.8042,-0.8077,-0.8044,-0.8044,-0.8044,-0.8044,0,-0.8041,-0.805,-0.804,-0.8046,-0.8055,-0.8047,-0.8057,-0.8054,-0.8052,-0.8057,-0.8047,-0.8052,-0.8043,-0.8047,-0.8042,-0.8051,-0.8052,-0.805,-0.8048,-0.805,-0.8051,-0.8051,-0.8049,-0.8045,-0.8045,-0.8044,-0.8044,0,-0.807,-0.8064,-0.8073,-0.8068,-0.8067,-0.8074,-0.8071,-0.8076,-0.8071,-0.8078,-0.8079,-0.8072,-0.8076,-0.807,-0.8074,-0.807,-0.8083,-0.8079,-0.8083,-0.8082,-0.8092,-0.8091,-0.8128,-0.8133,-0.8097,-0.8098,-0.8098,0,-0.8087,-0.8094,-0.809,-0.8092,-0.8091,-0.8095,-0.8097,-0.8089,-0.8091,-0.809,-0.8095,-0.8098,-0.8101,-0.8108,-0.8104,-0.8106,-0.8103,-0.8115,-0.8103,-0.8105,-0.8102,-0.8102,-0.8103,-0.8118,-0.8118,-0.8119,-0.8119,0,-0.8118,-0.8114,-0.8117,-0.8119,-0.8121,-0.8122,-0.8122,-0.8125,-0.8116,-0.8119,-0.8123,-0.8124,-0.8128,-0.8131,-0.8133,-0.8132,-0.8124,-0.8123,-0.8125,-0.8128,-0.813,-0.8128,-0.8089,-0.8122,-0.8122,-0.8121,-0.8121,-0.8121,-0.8141,-0.8147,-0.8144,-0.8148,-0.8147,-0.8147,-0.8152,-0.8148,-0.8151,-0.8153,-0.8148,-0.8153,-0.8152,-0.8153,-0.8153,-0.8157,-0.8151,-0.8155,-0.8156,-0.8157,-0.8158,-0.8129,-0.8157,-0.8157,-0.8157,-0.8157,-0.8157,0,-0.8172,-0.817,-0.8173,-0.8173,-0.8176,-0.8168,-0.8168,-0.817,-0.8175,-0.8174,-0.8176,-0.8181,-0.8184,-0.818,-0.8183,-0.8187,-0.8183,-0.8188,-0.8187,-0.8187,-0.8163,-0.8161,-0.8191,-0.8191,-0.8191,-0.8191,-0.8191,-0.8191,-0.8187,-0.8196,-0.8192,-0.82,-0.8198,-0.8203,-0.8203,-0.8203,-0.8203,-0.8208,-0.8211,-0.8208,-0.8206,-0.8208,-0.8211,-0.821,-0.8211,-0.8217,-0.8215,-0.8192,-0.8189,-0.8186,-0.8183,-0.8217,-0.8217,-0.8238,-0.8238,-0.8238]}]]